This demonstration page uses our WeatherBlox Daily Observations layout. Learn more.

41.55636, -103.73856

Hourly Observations for August 9, 2020

Temp ( °F °C ) Dew Point ( °F °C ) Humidity (%) Winds ( mph kmh ) Pressure ( in mb ) Visibility ( mi km ) Precip ( " mm )
12:58 am 00:58 Clear 86 30 40 4.3 19 19 E 8 13 29.86 1011 10 16.0934 0 0
1:58 am 01:58 Clear 80 26.8 48 8.9 32 32 E 13 20 29.88 1012 10 16.0934 0 0
2:58 am 02:58 Clear 75 23.7 53 11.6 47 47 SE 14 22 29.88 1012 10 16.0934 0 0
3:58 am 03:58 Partly Cloudy 75 23.9 54 12.1 48 48 E 14 22 29.89 1012 10 16.0934 0 0
4:58 am 04:58 Mostly Clear 71 21.8 52 11.2 51 51 E 14 22 29.91 1013 10 16.0934 0 0
5:58 am 05:58 Clear 67 19.5 52 11.1 58 58 ESE 13 20 29.91 1013 10 16.0934 0 0
6:58 am 06:58 Clear 63 17.2 48 9.1 59 59 ESE 14 22 29.92 1013 10 16.0934 0 0
7:58 am 07:58 Clear 63 17.3 47 8.5 56 56 SE 14 22 29.91 1013 10 16.0934 0 0
8:58 am 08:58 Clear 60 15.8 47 8.3 61 61 Calm 29.91 1013 10 16.0934 0 0
9:58 am 09:58 Clear 60 15.6 47 8.1 61 61 S 5 7 29.89 1012 10 16.0934 0 0
10:58 am 10:58 Clear 59 15 48 8.7 66 66 SW 5 7 29.88 1012 10 16.0934 0 0
11:58 am 11:58 Clear 56 13.5 47 8.4 71 71 Calm 29.91 1013 10 16.0934 0 0
12:58 pm 12:58 Sunny 56 13.1 47 8.4 73 73 W 5 7 29.92 1013 10 16.0934 0 0
1:58 pm 13:58 Sunny 64 17.6 49 9.5 59 59 WNW 9 15 29.93 1014 10 16.0934 0 0
2:58 pm 14:58 Sunny 71 21.9 49 9.3 45 45 W 8 13 29.91 1013 10 16.0934 0 0
3:58 pm 15:58 Sunny 78 25.7 46 7.5 31 31 NW 9 15 29.9 1012 10 16.0934 0 0
4:58 pm 16:58 Sunny 85 29.6 43 6 22 22 NW 8 13 29.89 1012 10 16.0934 0 0
5:58 pm 17:58 Sunny 93 33.8 34 1.3 13 13 NNW 8 13 29.87 1012 10 16.0934 0 0
6:58 pm 18:58 Sunny 95 35.1 21 -5.9 7 7 NW 13 20 29.86 1011 10 16.0934 0 0
7:58 pm 19:58 Sunny 96 35.8 20 -6.4 6 6 NNW 16 26 29.84 1011 10 16.0934 0 0
8:58 pm 20:58 Sunny 97 35.9 21 -6.3 6 6 NNW 14 22 29.84 1011 10 16.0934 0 0
9:58 pm 21:58 Sunny 97 35.9 20 -6.7 6 6 NNW 21 33 29.82 1010 10 16.0934 0 0
10:58 pm 22:58 Sunny 96 35.3 22 -5.4 7 7 N 12 19 29.83 1010 10 16.0934 0 0
11:58 pm 23:58 Sunny 94 34.4 28 -2 10 10 NNE 13 20 29.83 1010 10 16.0934 0 0

Powered by AerisWeather